Tracking 19246 objects as of 20-Aug-2018
HD Live streaming from Space Station
objects crossing your sky now

SL-8 R/B

Track SL-8 R/B now!
10-day predictions


NORAD ID: 24773
Int'l Code: 1997-017B
Perigee: 976.0 km
Apogee: 1,011.5 km
Inclination: 82.9 °
Period: 104.8 minutes
Semi major axis: 7364 km
RCS: 5.5844 m2 (large)
Launch date: April 17, 1997
Source: Commonwealth of Independent States (former USSR) (CIS)
Launch site: PLESETSK MISSILE AND SPACE COMPLEX (PKMTR)

Note: This is a ROCKET BODY
aabbcc
Your satellite tracking list
Your tracking list is empty




NASA's NSSDC Master Catalog

Two Line Element Set (TLE):
1 24773U 97017B   18231.51459399 +.00000125 +00000-0 +11744-3 0  9995
2 24773 082.9193 056.1318 0024144 188.3830 200.2537 13.73613792069429
Source of the keplerian elements: AFSPC